Showing default

O3B FM19, 44113

Orbit data source: Space-Track

O3B FM19, 44113 is a payload satellite owned by O3B SES (JE) that was launched on Thu, 04 Apr 2019 UTC via a SOYUZ-ST-B launch vehicle from the French Guiana (FRGUI). Payloads include a variety of satellites, spacecraft, and rockets equipped with specific instruments for various scientific and technological missions. These include communications satellites like Starlink; space stations such as the ISS; scientific satellites like the Hubble; Earth observation satellites from companies like Planet Labs, Umbra, and HawkEye 360; GPS; miniature CubeSats for education and research; and military/defense satellites.

Loading next visibility...
O3B FM19 details
Identifier
44113, 2019-020B
Orbit
Active
Last TLE update2 days ago
Origin
Flag of JEO3B SES (JE / O3B)
ManufacturerThales Alenia
MissionOperational Commercial Communications
Bus & MotorPRISMA?, LS-400 AOCS?
Mass700 kg wet, ~500 kg dry
Launch date (UTC)
2019-04-04 (6 years ago)
Launch vehicle
SOYUZ-ST-B
Launch site
French Guiana (FRGUI)
Object type
Payload
Rocket body
Debris
Shape & HBRTrap Box + 2 Pan, 12 m
Radar Cross Section21.980 m², Large (>1 m²)

Expand to show TLE details & history

TLE from 2 days ago
0 O3B FM19
1 44113U 19020B   24359.53457211 -.00000015  00000-0  00000-0 0  9993
2 44113   0.0483 343.5148 0001357 299.5051  76.9660  5.00115218104434
Epoch: 2024-12-24T12:49Z
Definitive object data (Epoch: 2024-12-24T12:49:47.03Z)
Latitude0.01415°
Longitude74.01275°
Altitude8,063.934 km
Speed5.254 km/s
True Right ascension23h 59m 59s
True Declination0° 00' 51"
Sunlit
Object was in daylight at TLE epoch
Visualization TLE readout
Latitude-0.02383°
Longitude30.41936°
Altitude8,062.72 km
Speed5.255 km/s
Apparent Right ascension22h 24m 56s
Apparent Declination-16° 40' 06"
Sunlit
Object is in daylight
Visualization observer readout
Local Sidereal Time16:23:28
Azimuth102.709° ESE
Elevation-10.881°
Doppler factor1
Orbital elements
Apogee altitude8,070.915 km
Perigee altitude8,066.994 km
Semi-major axis14,447.091 km
Eccentricity0.0001357
Inclination0.0483°
RAAN343.5148°
Arg. of periapsis299.5051°
True anomaly76.98115°
Mean anomaly76.966°
Eccentric anomaly76.97357°
Mean motion1.24989 °/min
BSTARUnknown
Orbital period288.02 mins
Loading maneuver chart data...
Loading historical data...
Loading historical data...
Loading historical data...
Loading historical data...
Loading historical data...
Loading historical data...
Loading historical data...
Other satellites on launch #20 in the year 2019 (2019-04-04 UTC)

O3B FM19 Visibility forecast

Observer location: undefined°, undefined

Span
Click to sort rows by Start time (UTC) header in descending order
Start Az.
Max El. time (UTC)
Max El. Az.
Max El.
End time (UTC)
End Az.
79 mins2024-12-26 21:11:12.169Z232.079° WSW2024-12-26 21:51:12.169Z179.158° S24.344°2024-12-26 22:30:12.169Z127.794° SE
78 mins2024-12-27 03:12:12.169Z231.114° WSW2024-12-27 03:50:12.169Z180.713° SSW24.415°2024-12-27 04:30:12.169Z127.789° SE
78 mins2024-12-27 09:12:12.169Z231.152° WSW2024-12-27 09:50:12.169Z180.747° SSW24.391°2024-12-27 10:30:12.169Z127.859° SE
78 mins2024-12-27 15:12:12.169Z231.121° WSW2024-12-27 15:50:12.169Z180.753° SSW24.321°2024-12-27 16:30:12.169Z127.864° SE
|